Overview Statistics Trail Chart Weather Telemetry Raw packets
 

This is the latest recevied weather packets stored in our database for station/object VE8SKI. If no packets are shown the sender has not sent any weather packets the latest 10 day(s).

<< 38 39 40 41 42 43 44 >>
Time Temp. Humidity Pressure Rain* Wind** Luminosity Snow
1777847851 1.67° C 69% 1018.7 hPa 0 mm 1.79 m/s, 120° - -
1777847551 1.67° C 70% 1018.7 hPa 0 mm 1.34 m/s, 66° - -
1777847251 1.67° C 69% 1018.6 hPa 0 mm 2.68 m/s, 77° - -
1777846949 1.67° C 69% 1018.6 hPa 0 mm 2.68 m/s, 91° - -
1777846649 1.67° C 70% 1018.5 hPa 0 mm 0.89 m/s, 113° - -
1777846350 1.67° C 70% 1018.5 hPa 0 mm 1.79 m/s, 55° - -
1777846050 1.67° C 70% 1018.3 hPa 0 mm 1.34 m/s, 48° - -
1777845751 1.67° C 69% 1018.3 hPa 0 mm 2.68 m/s, 53° - -
1777845451 1.67° C 69% 1018.2 hPa 0 mm 1.34 m/s, 63° - -
1777845148 1.67° C 69% 1018.2 hPa 0 mm 1.79 m/s, 28° - -
1777844849 1.67° C 69% 1018.2 hPa 0 mm 1.79 m/s, 76° - -
1777844549 1.67° C 69% 1018.2 hPa 0 mm 0 m/s - -
1777844250 1.11° C 69% 1018.2 hPa 0 mm 2.24 m/s, 27° - -
1777843950 1.67° C 69% 1018.2 hPa 0 mm 2.24 m/s, 30° - -
1777843650 1.67° C 68% 1018.2 hPa 0 mm 2.24 m/s, 73° - -
1777843348 1.67° C 69% 1018.1 hPa 0 mm 1.79 m/s, 42° - -
1777843048 1.67° C 70% 1018 hPa 0 mm 1.79 m/s, 70° - -
1777842749 1.11° C 69% 1018 hPa 0 mm 3.13 m/s, 59° - -
1777842449 1.11° C 70% 1017.9 hPa 0 mm 3.58 m/s, 100° - -
1777842150 1.11° C 69% 1017.9 hPa 0 mm 2.68 m/s, 70° - -
1777841850 1.11° C 69% 1017.9 hPa 0 mm 2.68 m/s, 55° - -
1777841548 1.67° C 68% 1017.9 hPa 0 mm 3.13 m/s, 82° - -
1777841248 1.67° C 69% 1017.9 hPa 0 mm 2.68 m/s, 72° - -
1777840948 1.11° C 70% 1017.8 hPa 0 mm 2.24 m/s, 69° - -
1777840649 1.11° C 70% 1017.9 hPa 0 mm 3.13 m/s, 1° - -

* Rain latest hour (hover to see other rain measurements)
** Current wind speed in m/s (hover to see current wind gust speed)